Location: Devargunta
(16.7631°N, 80.9077°E)
Time: 12:23:28
(UTC+00:00)

CZ-2C R/B - Pass Details

Date: 19 January 2021
Orbit: 704 x 908 km, 98.1° (Epoch: 06 March)

Event Time Altitude Azimuth Distance (km) Brightness Sun altitude
Rises 13:21:00 0° 170° (S) 3,150 6.3 -13.4°
Reaches altitude 10° 13:23:14 10° 171° (S) 2,252 5.5 -13.9°
Maximum altitude 13:28:11 81° 258° (WSW) 784 3.1 -15.0°
Drops below altitude 10° 13:33:26 10° 346° (NNW) 2,383 5.5 -16.2°
Sets 13:35:51 0° 347° (NNW) 3,347 6.3 -16.8°
